Stations météo

Publicité
Dax, France (7603): Température de l'air & dewpoint: 14.04.2019 14:00:00 - 20.04.2019 14:00:00 (CEST)Dax, France (7603): Température de l'air 5cm: 14.04.2019 14:00:00 - 20.04.2019 14:00:00 (CEST)Dax, France (7603): Température de l'air -20cm & Température de l'air -100cm: 14.04.2019 14:00:00 - 20.04.2019 14:00:00 (CEST)Dax, France (7603): Vitesse du vent & gusts: 14.04.2019 14:00:00 - 20.04.2019 14:00:00 (CEST)Dax, France (7603): Direction du vent: 14.04.2019 14:00:00 - 20.04.2019 14:00:00 (CEST)Dax, France (7603): reduced air pressure: 14.04.2019 14:00:00 - 20.04.2019 14:00:00 (CEST)Dax, France (7603): visibility: 14.04.2019 14:00:00 - 20.04.2019 14:00:00 (CEST)Dax, France (7603): Ensoleillement: 14.04.2019 14:00:00 - 20.04.2019 14:00:00 (CEST)Dax, France (7603): Quantités de précipitations: 14.04.2019 14:00:00 - 20.04.2019 14:00:00 (CEST)
Date & Time tt [°C] td [°C] tt 5cm [°C] tt -20cm [°C] tt -100cm [°C] ff [km/h] ff [knt] fx [km/h] fx [knt] dd ppp [hPa] vv [km] sd [min] rr [mm]
20.04.2019 14:00:00 20,6 7,9 - - - 15 8 31 17 E 1021,2 2,8 - -
20.04.2019 13:00:00 19,0 7,7 21,8 15,5 14,0 14 8 23 12 E 1021,8 6 60 0,0
20.04.2019 12:00:00 17,5 9,4 19,3 15,5 14,0 5 3 17 9 ENE 1022,3 16 60 0,0
20.04.2019 11:00:00 15,5 7,5 16,6 15,5 14,0 9 5 16 9 E 1022,7 17 60 0,0
20.04.2019 10:00:00 13,6 7,4 13,9 15,6 14,0 10 5 16 8 E 1023,1 12 60 0,0
20.04.2019 09:00:00 11,1 5,4 9,9 15,7 14,0 5 3 12 6 E 1023,3 11 60 0,0
20.04.2019 08:00:00 9,4 4,2 6,5 15,9 14,0 9 5 14 7 NE 1023,1 7 25 0,0
20.04.2019 07:00:00 7,6 5,6 6,6 16,0 14,0 0 0 5 3 N 1022,7 7 0 0,0
20.04.2019 06:00:00 8,9 5,6 7,6 16,2 14,0 0 0 6 3 N 1022,6 7 0 0,0
20.04.2019 05:00:00 11,0 5,3 9,1 16,3 13,9 4 2 10 6 NE 1023,0 8 0 0,0
20.04.2019 04:00:00 11,6 5,5 9,6 16,4 14,0 6 3 13 7 ENE 1022,9 9 0 0,0
20.04.2019 03:00:00 13,8 4,9 12,7 16,5 13,9 6 3 11 6 NNE 1023,2 17 0 0,0
20.04.2019 02:00:00 15,2 5,1 13,7 16,6 13,9 7 4 11 6 NE 1023,3 31 0 0,0
20.04.2019 01:00:00 15,9 5,5 14,4 16,7 13,9 10 5 17 9 E 1023,7 25 0 0,0
20.04.2019 00:00:00 17,2 5,5 15,6 16,8 13,9 10 6 19 10 ENE 1023,6 25 0 0,0
19.04.2019 23:00:00 17,7 6,8 15,1 16,9 13,9 6 4 11 6 NE 1023,7 28 0 0,0
19.04.2019 22:00:00 19,4 7,5 18,2 16,9 13,9 7 4 18 10 NE 1022,8 23 0 0,0
19.04.2019 21:00:00 20,9 8,5 19,2 16,8 13,9 11 6 23 12 NE 1022,1 20 30 0,0
19.04.2019 20:00:00 22,2 11,3 22,2 16,8 13,9 5 3 15 8 E 1021,1 24 60 0,0
19.04.2019 19:00:00 22,6 11,0 24,1 16,6 13,9 11 6 22 12 ESE 1020,8 20 60 0,0
19.04.2019 18:00:00 22,8 11,5 25,0 16,3 13,9 13 7 27 14 ENE 1020,6 15 60 0,0
19.04.2019 17:00:00 22,4 12,6 23,3 16,1 14,0 7 4 22 12 E 1020,6 14 36 0,0
19.04.2019 16:00:00 21,9 13,0 25,2 15,8 13,9 11 6 22 12 E 1020,9 9 58 0,0
19.04.2019 15:00:00 21,1 12,0 24,3 15,5 13,9 8 5 16 9 NE 1021,0 9 51 0,0
19.04.2019 14:00:00 20,6 13,1 23,2 15,3 13,9 5 3 11 6 S 1020,8 14 54 0,0
19.04.2019 13:00:00 18,7 13,3 19,8 15,1 13,9 6 3 19 10 ENE 1021,2 14 45 0,0
19.04.2019 12:00:00 18,1 13,0 18,7 15,0 13,9 5 3 11 6 ENE 1020,7 12 33 0,0
19.04.2019 11:00:00 16,5 12,6 17,1 15,1 13,9 5 3 9 5 SSE 1020,2 10 23 0,0
19.04.2019 10:00:00 14,8 12,8 14,0 15,1 13,9 6 3 12 6 WSW 1019,5 8 26 0,0
19.04.2019 09:00:00 13,1 12,5 12,6 15,1 13,8 5 3 10 5 WSW 1018,8 5 0 0,0
19.04.2019 08:00:00 12,6 12,1 12,0 15,2 13,9 7 4 12 7 SW 1018,3 4,5 0 0,0
19.04.2019 07:00:00 12,3 12,0 11,1 15,3 13,9 9 5 14 8 SSW 1017,8 1,8 0 0,0
19.04.2019 06:00:00 12,0 11,5 11,3 15,3 13,9 2 1 13 7 SSW 1016,9 4,5 0 0,0
19.04.2019 05:00:00 12,5 11,9 11,7 15,4 13,9 3 1 8 4 NW 1017,0 4,8 0 0,0
19.04.2019 04:00:00 12,4 11,6 11,7 15,4 13,8 4 2 9 5 N 1016,3 4,8 0 0,0
19.04.2019 03:00:00 12,9 12,3 11,4 15,5 13,9 6 3 13 7 W 1016,8 7 0 0,0
19.04.2019 02:00:00 12,9 11,8 12,2 15,6 13,8 2 1 9 5 W 1016,4 6 0 0,0
19.04.2019 01:00:00 13,4 11,8 13,0 15,6 13,9 3 2 9 5 W 1016,6 8 0 0,0
19.04.2019 00:00:00 13,6 12,2 13,1 15,6 13,8 5 3 8 4 SSW 1016,2 8 0 0,0
18.04.2019 23:00:00 13,8 11,8 13,2 15,7 13,8 4 2 7 4 SSW 1015,8 10 0 0,0
18.04.2019 22:00:00 14,7 12,0 13,9 15,7 13,8 3 2 8 5 NW 1015,0 11 0 0,0
18.04.2019 21:00:00 15,4 11,8 14,8 15,7 13,8 5 3 10 6 WNW 1015,1 12 0 0,0
18.04.2019 20:00:00 16,6 11,5 16,6 15,6 13,8 8 4 12 6 NNW 1014,5 16 0 0,0
18.04.2019 19:00:00 17,9 13,0 18,3 15,5 13,8 4 2 7 4 WSW 1014,9 17 0 0,0
18.04.2019 18:00:00 18,3 12,3 18,6 15,4 13,8 0 0 10 5 N 1014,7 23 0 0,0
18.04.2019 17:00:00 18,1 12,3 18,6 15,3 13,8 5 3 16 9 SE 1015,0 15 0 0,0
18.04.2019 16:00:00 18,4 13,3 15,8 15,3 13,8 9 5 21 11 SSE 1014,9 15 4 0,0
18.04.2019 15:00:00 17,0 13,3 15,4 15,2 13,8 9 5 18 10 ENE 1014,4 10 0 0,2
18.04.2019 14:00:00 17,4 11,9 17,7 15,0 13,8 10 5 16 9 E 1015,1 15 0 0,0
18.04.2019 13:00:00 18,0 12,2 19,6 14,9 13,8 8 4 13 7 ESE 1015,3 15 6 0,0
18.04.2019 12:00:00 17,7 12,2 17,7 14,9 13,8 2 1 12 7 N 1015,2 15 34 0,0
18.04.2019 11:00:00 15,1 11,7 14,6 14,8 13,7 6 4 12 7 E 1014,6 12 0 0,0
18.04.2019 10:00:00 13,4 10,9 13,0 14,9 13,8 7 4 12 6 NE 1014,0 12 0 0,0
18.04.2019 09:00:00 12,5 10,6 12,1 15,0 13,8 7 4 16 9 NE 1013,2 15 0 0,0
18.04.2019 08:00:00 12,2 10,4 11,4 15,1 13,8 10 5 18 10 NE 1012,5 12 0 0,0
18.04.2019 07:00:00 12,3 10,4 11,4 15,1 13,8 7 4 11 6 NE 1012,0 15 0 0,0
18.04.2019 06:00:00 12,4 10,3 11,9 15,2 13,8 9 5 15 8 ENE 1011,7 18 0 0,0
18.04.2019 05:00:00 13,1 10,5 11,9 15,2 13,8 8 5 13 7 NE 1011,7 17 0 0,0
18.04.2019 04:00:00 13,3 10,3 12,7 15,2 13,7 3 2 19 10 E 1012,0 18 0 0,0
18.04.2019 03:00:00 13,7 10,3 13,2 15,3 13,7 12 7 23 12 ENE 1011,8 25 0 0,0
18.04.2019 02:00:00 14,1 10,5 13,5 15,3 13,7 8 4 21 11 ENE 1012,2 24 0 0,0
18.04.2019 01:00:00 14,6 10,6 14,0 15,4 13,7 10 6 23 12 ENE 1012,1 21 0 0,0
18.04.2019 00:00:00 15,1 10,9 14,4 15,5 13,7 14 8 25 13 ENE 1011,4 21 0 0,0
17.04.2019 23:00:00 15,7 11,3 14,9 15,5 13,7 12 7 26 14 NE 1011,0 23 0 0,0
17.04.2019 22:00:00 16,0 11,4 15,1 15,5 13,7 13 7 29 15 E 1010,6 22 0 0,0
17.04.2019 21:00:00 16,9 11,4 16,0 15,4 13,7 16 9 35 19 E 1009,8 25 0 0,0
17.04.2019 20:00:00 18,4 11,7 17,9 15,4 13,7 21 11 38 21 ENE 1009,6 25 45 0,0
17.04.2019 19:00:00 19,8 11,6 20,3 15,3 13,7 21 12 33 18 E 1009,8 25 29 0,0
17.04.2019 18:00:00 20,5 11,9 21,0 15,2 13,7 23 12 33 18 E 1009,9 23 38 0,0
17.04.2019 17:00:00 19,9 12,2 20,6 15,1 13,7 18 10 33 18 E 1010,5 20 24 0,0
17.04.2019 16:00:00 19,2 11,7 19,2 15,0 13,7 18 10 32 17 E 1010,9 20 5 0,0
17.04.2019 15:00:00 18,1 11,4 19,2 14,9 13,7 18 10 32 18 E 1011,5 20 8 0,0
17.04.2019 14:00:00 17,9 11,7 17,1 14,9 13,7 19 11 29 16 E 1012,0 20 6 0,0
17.04.2019 13:00:00 16,2 10,7 16,4 14,8 13,7 14 8 25 14 E 1012,7 20 0 0,0
17.04.2019 12:00:00 15,4 10,6 15,4 14,8 13,6 12 6 23 12 ENE 1012,8 20 0 0,0
17.04.2019 11:00:00 14,5 10,1 15,4 14,9 13,6 12 6 20 11 E 1012,9 20 0 0,0
17.04.2019 10:00:00 13,7 9,9 12,6 15,0 13,6 13 7 18 10 ENE 1012,6 20 48 0,0
17.04.2019 09:00:00 11,6 9,5 10,4 15,0 13,6 9 5 19 11 ENE 1012,9 20 44 0,0
17.04.2019 08:00:00 10,3 8,9 9,3 15,2 13,6 10 5 16 9 ENE 1013,3 15 2 0,0
17.04.2019 07:00:00 10,1 8,5 8,9 15,2 13,6 5 3 13 7 NE 1012,9 15 0 0,0
17.04.2019 06:00:00 10,3 8,4 8,8 15,3 13,6 4 2 11 6 ENE 1013,4 21 0 0,0
17.04.2019 05:00:00 10,7 8,3 9,8 15,5 13,6 7 4 11 6 ENE 1013,8 26 0 0,0
17.04.2019 04:00:00 11,2 8,2 9,7 15,6 13,6 5 3 10 6 ENE 1014,6 25 0 0,0
17.04.2019 03:00:00 12,1 8,0 10,8 15,6 13,6 7 4 15 8 ENE 1015,1 35 0 0,0
17.04.2019 02:00:00 12,8 8,1 11,7 15,8 13,6 9 5 23 12 E 1015,7 36 0 0,0
17.04.2019 01:00:00 13,5 7,9 12,6 15,9 13,6 14 8 22 12 E 1016,2 30 0 0,0
17.04.2019 00:00:00 14,0 8,0 13,0 16,0 13,6 14 8 21 11 E 1016,6 33 0 0,0
16.04.2019 23:00:00 14,8 8,1 13,7 16,0 13,6 14 8 22 12 E 1017,0 32 0 0,0
16.04.2019 22:00:00 15,6 7,9 14,5 16,1 13,5 15 8 24 13 E 1017,1 31 0 0,0
16.04.2019 21:00:00 16,4 7,6 15,3 16,1 13,6 12 7 21 11 E 1017,0 37 19 0,0
16.04.2019 20:00:00 18,4 7,8 18,3 16,0 13,6 11 6 24 13 E 1017,1 25 60 0,0
16.04.2019 19:00:00 19,3 7,1 21,0 15,9 13,6 14 8 23 12 E 1017,3 24 60 0,0
16.04.2019 18:00:00 19,5 7,6 22,2 15,6 13,6 11 6 25 13 E 1017,7 25 60 0,0
16.04.2019 17:00:00 19,8 7,8 22,2 15,3 13,6 10 6 22 12 E 1018,2 20 60 0,0
16.04.2019 16:00:00 19,1 7,2 19,7 15,0 13,5 14 8 24 13 E 1018,6 20 53 0,0
16.04.2019 15:00:00 17,4 6,6 19,0 14,7 13,5 5 3 14 8 NE 1019,3 20 30 0,0
16.04.2019 14:00:00 18,0 8,8 20,0 14,5 13,6 8 4 16 9 S 1019,9 20 58 0,0
16.04.2019 13:00:00 16,6 8,3 20,5 14,4 13,5 5 3 13 7 N 1020,4 15 54 0,0
16.04.2019 12:00:00 16,3 8,8 16,1 14,3 13,5 4 2 12 7 S 1020,6 12 25 0,0
16.04.2019 11:00:00 14,7 10,1 15,0 14,3 13,5 7 4 13 7 SSE 1020,7 10 27 0,0
16.04.2019 10:00:00 13,4 10,4 14,2 14,3 13,5 8 4 12 7 WSW 1020,8 8 58 0,0
16.04.2019 09:00:00 11,7 10,9 10,4 14,4 13,5 5 3 11 6 S 1020,6 8 52 0,0
16.04.2019 08:00:00 10,2 9,7 8,9 14,4 13,5 3 2 8 4 S 1020,1 6 8 0,0
16.04.2019 07:00:00 10,7 10,1 9,4 14,5 13,5 4 2 14 7 SSW 1019,3 5 0 0,0
16.04.2019 06:00:00 11,5 10,7 10,9 14,6 13,5 7 4 12 6 WSW 1018,9 8 0 0,0
16.04.2019 05:00:00 12,1 11,3 11,5 14,6 13,6 6 3 16 9 W 1018,5 8 0 0,0
16.04.2019 04:00:00 12,3 11,5 11,8 14,6 13,5 10 5 25 14 WSW 1018,0 11 0 0,2
16.04.2019 03:00:00 12,4 11,6 11,8 14,7 13,5 10 6 23 12 WSW 1017,9 11 0 0,2
16.04.2019 02:00:00 12,4 11,6 11,9 14,7 13,5 10 6 22 12 SW 1018,0 14 0 0,2
16.04.2019 01:00:00 12,7 11,9 12,3 14,8 13,5 16 9 24 13 SW 1017,8 11 0 0,2
16.04.2019 00:00:00 12,8 12,2 12,2 14,8 13,5 14 8 23 13 SW 1017,0 9 0 0,2
15.04.2019 23:00:00 12,9 12,1 12,3 14,8 13,5 11 6 30 16 WSW 1016,1 5 0 2,2
15.04.2019 22:00:00 13,6 12,8 13,1 14,8 13,5 16 8 31 17 W 1015,3 2,4 0 4,8
15.04.2019 21:00:00 14,4 13,8 13,9 14,8 13,5 9 5 21 12 W 1012,8 1,7 0 4,7
15.04.2019 20:00:00 14,7 14,1 14,3 14,7 13,5 14 7 42 23 NW 1011,3 2,0 0 5,3
15.04.2019 19:00:00 15,8 13,8 14,6 14,5 13,5 27 14 66 35 WNW 1010,3 0,6 0 6,1
15.04.2019 18:00:00 23,5 12,5 24,0 14,3 13,5 16 9 27 15 E 1006,7 32 34 0,0
15.04.2019 17:00:00 23,2 13,1 23,8 14,1 13,5 14 8 25 14 ESE 1007,1 30 13 0,0
15.04.2019 16:00:00 22,1 12,1 22,9 14,0 13,5 17 9 29 16 E 1007,4 22 0 0,0
15.04.2019 15:00:00 22,0 12,3 23,2 13,8 13,5 17 9 26 14 E 1008,1 20 1 0,0
15.04.2019 14:00:00 21,0 11,3 21,3 13,7 13,5 16 9 26 14 E 1008,7 20 6 0,0
15.04.2019 13:00:00 19,6 11,4 18,6 13,6 13,5 13 7 23 13 E 1009,5 25 0 0,0
15.04.2019 12:00:00 18,0 10,1 18,7 13,6 13,5 16 9 23 12 E 1010,2 28 1 0,0
15.04.2019 11:00:00 16,7 9,1 15,1 13,5 13,5 11 6 24 13 ESE 1011,1 20 43 0,0
15.04.2019 10:00:00 13,6 7,6 12,9 13,6 13,5 14 7 21 12 E 1011,8 20 31 0,0
15.04.2019 09:00:00 10,5 6,6 8,0 13,7 13,5 4 2 20 11 NE 1012,8 20 51 0,0
15.04.2019 08:00:00 7,9 6,0 6,6 13,7 13,5 9 5 15 8 ENE 1012,7 15 2 0,0
15.04.2019 07:00:00 8,0 6,0 7,0 13,8 13,5 6 3 11 6 ENE 1013,3 9 0 0,0
15.04.2019 06:00:00 8,5 6,3 6,6 13,9 13,5 6 4 10 5 NE 1013,8 9 0 0,0
15.04.2019 05:00:00 8,2 6,2 7,4 14,0 13,5 5 3 20 11 ENE 1014,2 8 0 0,0
15.04.2019 04:00:00 8,7 6,7 7,1 14,1 13,5 13 7 20 11 ENE 1015,0 8 0 0,0
15.04.2019 03:00:00 8,8 6,6 7,2 14,2 13,5 4 2 9 5 ENE 1016,0 6 0 0,0
15.04.2019 02:00:00 9,4 6,8 8,1 14,3 13,5 8 5 12 6 E 1016,8 7 0 0,0
15.04.2019 01:00:00 9,3 6,7 8,0 14,4 13,5 4 2 5 3 ENE 1017,2 11 0 0,0
15.04.2019 00:00:00 10,3 7,2 8,9 14,4 13,5 2 1 5 3 E 1017,4 10 0 0,0
14.04.2019 23:00:00 11,5 7,6 10,1 14,5 13,5 0 0 7 4 N 1017,5 11 0 0,0
14.04.2019 22:00:00 13,3 7,1 11,1 14,5 13,4 7 4 12 6 E 1017,2 21 0 0,0
14.04.2019 21:00:00 15,0 6,8 12,8 14,4 13,4 3 2 8 4 ESE 1016,9 10 0 0,0
14.04.2019 20:00:00 16,4 6,5 16,4 14,3 13,4 4 2 11 6 SSE 1016,7 20 45 0,0
14.04.2019 19:00:00 17,2 6,4 20,2 14,2 13,5 0 0 11 6 N 1016,8 15 60 0,0
14.04.2019 18:00:00 17,5 6,4 20,6 14,1 13,5 5 3 17 9 S 1017,2 13 60 0,0
14.04.2019 17:00:00 16,9 6,4 17,7 13,9 13,5 4 2 11 6 S 1017,6 16 34 0,0
14.04.2019 16:00:00 14,9 4,8 15,3 13,8 13,4 6 4 18 10 E 1018,0 12 0 0,0
14.04.2019 15:00:00 13,8 4,4 13,9 13,8 13,4 11 6 20 11 NE 1017,8 17 0 0,0
14.04.2019 14:00:00 13,0 4,7 11,4 13,7 13,4 12 7 18 10 ENE 1017,9 15 0 0,0

tt = Température de l'air
td = dewpoint
tt 5cm = Température de l'air 5cm
tt -20cm = Température de l'air -20cm
tt -100cm = Température de l'air -100cm
ff = Vitesse du vent
fx = gusts
dd = Direction du vent
ppp = reduced air pressure
vv = visibility
sd = Ensoleillement
rr = Quantités de précipitations

stations d'obs. à proximité